• In Netherlands
  • List of Countries
  • For 7 days
  • Water Temperature
  • Satellite Maps
  • Weather Map
  • Weather Widgets
  • user-avatar
    Login

    Hourly Weather Annaba

    Today, 19 February, Sunday

    Time Temperature Precipitation Wind Pressure Humidity
    00:00 +8°C° 0 mm 1 mps 764 mmHg 91%
    01:00 +8°C° 0 mm 1 mps 764 mmHg 90%
    02:00 +7°C° 0 mm 1 mps 764 mmHg 91%
    03:00 +7°C° 0 mm 1 mps 764 mmHg 91%
    04:00 +6°C° 0 mm 1 mps 764 mmHg 92%
    05:00 +6°C° 0 mm 1 mps 764 mmHg 91%
    06:00 +6°C° 0 mm 1 mps 764 mmHg 91%
    07:00 +6°C° 0 mm 1 mps 764 mmHg 91%
    08:00 +9°C° 0 mm 1 mps 765 mmHg 84%
    09:00 +12°C° 0 mm 1 mps 765 mmHg 76%
    10:00 +14°C° 0 mm 1 mps 765 mmHg 69%
    11:00 +15°C° 0 mm 2 mps 765 mmHg 66%
    12:00 +16°C° 0 mm 2 mps 765 mmHg 63%
    13:00 +17°C° 0 mm 2 mps 764 mmHg 59%
    14:00 +17°C° 0 mm 3 mps 764 mmHg 62%
    15:00 +17°C° 0 mm 3 mps 764 mmHg 64%
    16:00 +17°C° 0 mm 4 mps 764 mmHg 66%
    17:00 +14°C° 0 mm 4 mps 764 mmHg 74%
    18:00 +12°C° 0 mm 4 mps 764 mmHg 83%
    19:00 +10°C° 0 mm 4 mps 764 mmHg 91%
    20:00 +9°C° 0 mm 3 mps 765 mmHg 91%
    21:00 +9°C° 0 mm 3 mps 765 mmHg 91%
    22:00 +8°C° 0 mm 3 mps 765 mmHg 92%
    23:00 +8°C° 0 mm 3 mps 765 mmHg 92%

    Tomorrow, 20 February, Monday

    Time Temperature Precipitation Wind Pressure Humidity
    00:00 +8°C° 0 mm 2 mps 765 mmHg 92%
    01:00 +8°C° 0 mm 2 mps 765 mmHg 91%
    02:00 +7°C° 0 mm 2 mps 765 mmHg 91%
    03:00 +7°C° 0 mm 2 mps 765 mmHg 91%
    04:00 +7°C° 0 mm 2 mps 765 mmHg 91%
    05:00 +7°C° 0 mm 2 mps 765 mmHg 91%
    06:00 +6°C° 0 mm 2 mps 765 mmHg 91%
    07:00 +6°C° 0 mm 2 mps 765 mmHg 90%
    08:00 +10°C° 0 mm 1 mps 765 mmHg 83%
    09:00 +13°C° 0 mm 1 mps 765 mmHg 76%
    10:00 +16°C° 0 mm 1 mps 766 mmHg 69%
    11:00 +18°C° 0 mm 1 mps 765 mmHg 67%
    12:00 +18°C° 0 mm 2 mps 765 mmHg 64%
    13:00 +18°C° 0 mm 2 mps 765 mmHg 62%
    14:00 +18°C° 0 mm 3 mps 765 mmHg 64%
    15:00 +18°C° 0 mm 3 mps 764 mmHg 66%
    16:00 +18°C° 0 mm 3 mps 764 mmHg 68%
    17:00 +14°C° 0 mm 3 mps 764 mmHg 75%
    18:00 +13°C° 0 mm 2 mps 764 mmHg 82%
    19:00 +9°C° 0 mm 2 mps 765 mmHg 89%
    20:00 +10°C° 0 mm 1 mps 765 mmHg 89%
    21:00 +9°C° 0 mm 1 mps 765 mmHg 90%
    22:00 +8°C° 0 mm 1 mps 766 mmHg 90%
    23:00 +8°C° 0 mm 1 mps 766 mmHg 91%

    Day after tomorrow, 21 February, Tuesday

    Time Temperature Precipitation Wind Pressure Humidity
    00:00 +8°C° 0 mm 1 mps 766 mmHg 91%
    01:00 +7°C° 0 mm 2 mps 766 mmHg 91%
    02:00 +6°C° 0 mm 2 mps 766 mmHg 92%
    03:00 +6°C° 0 mm 2 mps 766 mmHg 92%
    04:00 +6°C° 0 mm 2 mps 765 mmHg 92%
    05:00 +5°C° 0 mm 3 mps 765 mmHg 92%
    06:00 +5°C° 0 mm 3 mps 765 mmHg 92%
    07:00 +4°C° 0 mm 3 mps 765 mmHg 92%
    08:00 +8°C° 0 mm 3 mps 766 mmHg 85%
    09:00 +11°C° 0 mm 3 mps 766 mmHg 78%
    10:00 +13°C° 0 mm 3 mps 766 mmHg 71%
    11:00 +14°C° 0 mm 3 mps 766 mmHg 66%
    12:00 +16°C° 0 mm 3 mps 766 mmHg 61%
    13:00 +17°C° 0 mm 3 mps 765 mmHg 55%
    14:00 +17°C° 0 mm 3 mps 765 mmHg 57%
    15:00 +17°C° 0 mm 3 mps 765 mmHg 59%
    16:00 +17°C° 0 mm 3 mps 764 mmHg 61%
    17:00 +15°C° 0 mm 2 mps 765 mmHg 70%
    18:00 +12°C° 0 mm 2 mps 765 mmHg 79%
    19:00 +9°C° 0 mm 1 mps 765 mmHg 88%
    20:00 +9°C° 0 mm 1 mps 765 mmHg 89%
    21:00 +8°C° 0 mm 1 mps 766 mmHg 90%
    22:00 +8°C° 0 mm 1 mps 766 mmHg 91%
    23:00 +8°C° 0 mm 1 mps 766 mmHg 90%

    22 February, Wednesday

    Time Temperature Precipitation Wind Pressure Humidity
    00:00 +8°C° 0 mm 1 mps 766 mmHg 90%
    01:00 +8°C° 0 mm 1 mps 766 mmHg 90%
    02:00 +8°C° 0 mm 1 mps 765 mmHg 88%
    03:00 +8°C° 0 mm 1 mps 765 mmHg 87%
    04:00 +8°C° 0 mm 1 mps 765 mmHg 86%
    05:00 +8°C° 0 mm 1 mps 765 mmHg 85%
    06:00 +8°C° 0 mm 1 mps 765 mmHg 84%
    07:00 +8°C° 0 mm 1 mps 765 mmHg 83%
    08:00 +11°C° 0 mm 1 mps 765 mmHg 75%
    09:00 +14°C° 0 mm 1 mps 765 mmHg 67%
    10:00 +17°C° 0 mm 2 mps 765 mmHg 59%
    11:00 +19°C° 0 mm 2 mps 765 mmHg 57%
    12:00 +20°C° 0 mm 2 mps 764 mmHg 54%
    13:00 +23°C° 0 mm 2 mps 764 mmHg 52%
    14:00 +23°C° 0 mm 2 mps 763 mmHg 55%
    15:00 +22°C° 0 mm 3 mps 763 mmHg 57%
    16:00 +21°C° 0 mm 4 mps 762 mmHg 60%
    17:00 +19°C° 0 mm 3 mps 763 mmHg 69%
    18:00 +16°C° 0 mm 3 mps 763 mmHg 78%
    19:00 +12°C° 0 mm 3 mps 763 mmHg 88%
    20:00 +13°C° 0 mm 3 mps 763 mmHg 87%
    21:00 +13°C° 0 mm 3 mps 763 mmHg 86%
    22:00 +13°C° 0 mm 3 mps 763 mmHg 86%
    23:00 +13°C° 0 mm 3 mps 763 mmHg 85%

    23 February, Thursday

    Time Temperature Precipitation Wind Pressure Humidity
    00:00 +13°C° 0 mm 3 mps 763 mmHg 84%
    01:00 +13°C° 0 mm 3 mps 762 mmHg 82%
    02:00 +13°C° 0 mm 3 mps 762 mmHg 79%
    03:00 +15°C° 0 mm 2 mps 762 mmHg 76%
    04:00 +15°C° 0 mm 2 mps 762 mmHg 72%
    05:00 +15°C° 0 mm 2 mps 762 mmHg 73%
    06:00 +14°C° 0 mm 2 mps 762 mmHg 74%
    07:00 +14°C° 0 mm 2 mps 762 mmHg 74%
    08:00 +16°C° 0 mm 2 mps 762 mmHg 70%
    09:00 +18°C° 0 mm 2 mps 762 mmHg 66%
    10:00 +20°C° 0 mm 2 mps 763 mmHg 62%
    11:00 +21°C° 0 mm 2 mps 762 mmHg 60%
    12:00 +23°C° 0 mm 2 mps 762 mmHg 59%
    13:00 +23°C° 0 mm 2 mps 762 mmHg 58%
    14:00 +24°C° 0 mm 2 mps 761 mmHg 59%
    15:00 +24°C° 0 mm 3 mps 760 mmHg 60%
    16:00 +23°C° 0 mm 4 mps 759 mmHg 61%
    17:00 +21°C° 0 mm 4 mps 759 mmHg 68%
    18:00 +19°C° 0 mm 4 mps 759 mmHg 74%
    19:00 +17°C° 0 mm 4 mps 759 mmHg 80%
    20:00 +17°C° 0 mm 4 mps 759 mmHg 74%
    21:00 +18°C° 0 mm 4 mps 759 mmHg 67%
    22:00 +18°C° 0 mm 4 mps 759 mmHg 61%
    23:00 +18°C° 0 mm 4 mps 759 mmHg 59%

    24 February, Friday

    Time Temperature Precipitation Wind Pressure Humidity
    00:00 +17°C° 0 mm 4 mps 759 mmHg 57%
    01:00 +17°C° 0 mm 3 mps 758 mmHg 55%
    02:00 +16°C° 0 mm 3 mps 758 mmHg 57%
    03:00 +16°C° 0 mm 3 mps 758 mmHg 58%
    04:00 +14°C° 0 mm 3 mps 757 mmHg 59%
    05:00 +14°C° 0 mm 3 mps 757 mmHg 59%
    06:00 +14°C° 0 mm 3 mps 758 mmHg 59%
    07:00 +14°C° 0 mm 3 mps 758 mmHg 59%
    08:00 +17°C° 0 mm 3 mps 758 mmHg 59%
    09:00 +19°C° 0 mm 4 mps 759 mmHg 58%
    10:00 +21°C° 0 mm 4 mps 759 mmHg 57%
    11:00 +21°C° 0 mm 4 mps 759 mmHg 60%
    12:00 +21°C° 0 mm 5 mps 759 mmHg 62%
    13:00 +22°C° 0 mm 5 mps 759 mmHg 64%
    14:00 +21°C° 0 mm 5 mps 759 mmHg 69%
    15:00 +20°C° 0 mm 5 mps 759 mmHg 74%
    16:00 +20°C° 0 mm 5 mps 759 mmHg 79%
    17:00 +18°C° 0 mm 4 mps 759 mmHg 83%
    18:00 +17°C° 0 mm 4 mps 760 mmHg 88%
    19:00 +14°C° 0 mm 3 mps 761 mmHg 92%
    20:00 +13°C° 0 mm 3 mps 761 mmHg 93%
    21:00 +13°C° 0 mm 3 mps 762 mmHg 94%
    22:00 +12°C° 0 mm 3 mps 762 mmHg 95%
    23:00 +11°C° 0 mm 3 mps 762 mmHg 95%
    Show more